Araxos, Greece

3:27 PM EET on February 22, 2017 (GMT +0200)
Araxos Air Base

Weather History for LGRX - June, 2013

Change the Weather History Date:

Wednesday, June 26, 2013

  Actual Average Record
Temperature  
Mean Temperature 71 °F -  
Max Temperature 82 °F 86 °F 100 °F (2007)
Min Temperature 60 °F 65 °F 59 °F (1999)
Cooling Degree Days 6    
Growing Degree Days 21 (Base 50)    
Moisture  
Dew Point 60 °F    
Average Humidity 62    
Maximum Humidity 88    
Minimum Humidity 37    
Precipitation  
Precipitation 0.00 in - - ()
Sea Level Pressure  
Sea Level Pressure 29.89 in    
Wind  
Wind Speed 4 mph ()    
Max Wind Speed 15 mph    
Max Gust Speed -    
Visibility 6.2 miles    
Events      
Averages and records for this station are not official NWS values.
T = Trace of Precipitation, MM = Missing Value Source: Averaged Metar Reports

Daily Weather History Graph

Daily Weather History Graph

Search for Another Location

Airport or City:

Trip Planner

Search our weather history database for the weather conditions in past years. The results will help you decide how hot, cold, wet, or windy it might be!

Date:

Astronomy

Jun. 26, 2013 Rise Set
Actual Time 6:12 AM EEST 9:01 PM EEST
Civil Twilight 5:41 AM EEST 9:32 PM EEST
Nautical Twilight 5:01 AM EEST 10:12 PM EEST
Astronomical Twilight 4:16 AM EEST 10:57 PM EEST
Moon 11:17 PM EEST (6/26) 9:39 AM EEST (6/26)
Length of Visible Light 15h 51m
Length of Day
14h 48m
Waning Gibbous, 88% of the Moon is Illuminated
Jun 26
Waning Gibbous
Jun 30
Last Quarter
Jul 8
New
Jul 16
First Quarter
Jul 22
Full

Hourly Weather History & Observations

Time (EEST) Temp. Heat Index Dew Point Humidity Pressure Visibility Wind Dir Wind Speed Gust Speed Precip Events Conditions
12:50 AM 71.6 °F - 62.6 °F 73% 29.89 in - Variable 3.5 mph - N/A   Clear
2:50 AM 69.8 °F - 60.8 °F 73% 29.89 in - Variable 3.5 mph - N/A   Clear
4:50 AM 64.4 °F - 60.8 °F 88% 29.86 in - Calm Calm - N/A   Clear
5:50 AM 62.6 °F - 59.0 °F 88% 29.86 in - Calm Calm - N/A   Clear
6:20 AM 60.8 °F - 57.2 °F 88% 29.86 in - Calm Calm - N/A   Clear
6:50 AM 60.8 °F - 57.2 °F 88% 29.86 in - Calm Calm - N/A   Clear
7:20 AM 64.4 °F - 60.8 °F 88% 29.86 in - Calm Calm - N/A   Clear
7:50 AM 69.8 °F - 62.6 °F 78% 29.89 in - Calm Calm - N/A   Clear
8:20 AM 71.6 °F - 62.6 °F 73% 29.89 in - Calm Calm - N/A   Clear
8:50 AM 75.2 °F - 62.6 °F 65% 29.89 in - Calm Calm - N/A   Clear
9:20 AM 77.0 °F - 60.8 °F 57% 29.89 in - Calm Calm - N/A   Clear
9:50 AM 77.0 °F - 60.8 °F 57% 29.89 in - Calm Calm - N/A   Clear
10:20 AM 78.8 °F - 60.8 °F 54% 29.89 in - Variable 3.5 mph - N/A   Clear
10:50 AM 80.6 °F 81.1 °F 59.0 °F 48% 29.89 in - Variable 3.5 mph - N/A   Clear
11:20 AM 80.6 °F 81.1 °F 59.0 °F 48% 29.89 in - Variable 3.5 mph - N/A   Clear
11:50 AM 78.8 °F - 62.6 °F 57% 29.89 in - West 5.8 mph - N/A   Clear
12:20 PM 78.8 °F - 62.6 °F 57% 29.89 in - West 5.8 mph - N/A   Clear
12:50 PM 80.6 °F 81.5 °F 60.8 °F 51% 29.89 in - West 4.6 mph - N/A   Clear
1:20 PM 80.6 °F 81.8 °F 62.6 °F 54% 29.89 in - West 5.8 mph - N/A   Clear
1:50 PM 80.6 °F 81.1 °F 59.0 °F 48% 29.89 in - West 8.1 mph - N/A   Clear
2:20 PM 82.4 °F 81.4 °F 53.6 °F 37% 29.89 in - West 8.1 mph - N/A   Clear
2:50 PM 80.6 °F 81.1 °F 59.0 °F 48% 29.89 in - West 12.7 mph - N/A   Clear
3:20 PM 80.6 °F 81.5 °F 60.8 °F 51% 29.89 in - West 12.7 mph - N/A   Clear
3:50 PM 80.6 °F 81.1 °F 59.0 °F 48% 29.89 in - West 12.7 mph - N/A   Clear
4:20 PM 80.6 °F 81.1 °F 59.0 °F 48% 29.89 in 6.2 mi West 15.0 mph - N/A   Partly Cloudy
4:50 PM 80.6 °F 81.1 °F 59.0 °F 48% 29.89 in 6.2 mi West 13.8 mph - N/A   Partly Cloudy
5:20 PM 80.6 °F 81.5 °F 60.8 °F 51% 29.89 in 6.2 mi WNW 12.7 mph - N/A   Partly Cloudy
5:50 PM 78.8 °F - 60.8 °F 54% 29.89 in 6.2 mi West 13.8 mph - N/A   Partly Cloudy
6:20 PM 78.8 °F - 60.8 °F 54% 29.89 in - West 12.7 mph - N/A   Clear
6:50 PM 77.0 °F - 60.8 °F 57% 29.89 in 6.2 mi West 11.5 mph - N/A   Partly Cloudy
7:20 PM 77.0 °F - 60.8 °F 57% 29.89 in 6.2 mi WNW 11.5 mph - N/A   Partly Cloudy
7:50 PM 75.2 °F - 60.8 °F 61% 29.89 in 6.2 mi West 11.5 mph - N/A   Partly Cloudy
8:20 PM 75.2 °F - 60.8 °F 61% 29.89 in 6.2 mi West 9.2 mph - N/A   Partly Cloudy
8:50 PM 73.4 °F - 62.6 °F 69% 29.89 in 6.2 mi WNW 8.1 mph - N/A   Partly Cloudy
9:50 PM 73.4 °F - 60.8 °F 65% 29.89 in 6.2 mi Calm Calm - N/A   Partly Cloudy
10:50 PM 69.8 °F - 60.8 °F 73% 29.92 in 6.2 mi Calm Calm - N/A   Partly Cloudy
11:50 PM 68.0 °F - 60.8 °F 78% 29.92 in - Calm Calm - N/A   Clear